Temperature
2 3 3 2 2 2 1 2 2 3 3 4 4 3 3 3 2 2 2 1 1 1 1 1 1 1 1 1 1 1 1 1 1 1 1 1 1 1 1 1 1 1 1 1
1 2 2 2 2 2 2 2 2 3 3 4 3 3 3 2 2 1 1 1 0 0 0 0 -0 -0 0 0 0 0 0 0 0 0 0 0 0 0 0 0 0 0 0 0
1 2 1 1 2 2 2 2 2 2 2 3 2 2 2 1 1 1 0 -0 -0 -1 -1 -1 -1 -0 -0 -0 -0 -0 -0 -0 -0 -0 -0 -0 -0 -0 -0 -0 -1 -0 -0 -0
0 1 1 2 3 2 2 2 2 2 2 2 2 2 1 1 0 -0 -0 -1 -1 -1 -1 -1 -1 -1 -1 -1 -1 -1 -1 -1 -1 -1 -1 -1 -1 -1 -1 -1 -1 -1 -1 -1
-0 0 2 3 2 1 0 0 1 1 1 2 2 1 1 1 -0 -1 -1 -1 -1 -1 -1 -1 -1 -1 -1 -1 -1 -1 -1 -1 -1 -1 -1 -1 -1 -1 -1 -1 -1 -1 -1 -1
-0 0 1 3 1 1 1 0 1 1 0 0 0 -1 -1 -0 -1 -1 -1 -1 -1 -2 -2 -2 -2 -2 -2 -2 -2 -2 -2 -2 -2 -2 -2 -2 -2 -2 -2 -2 -2 -2 -2 -1
-1 -0 1 1 0 1 1 1 1 1 0 -0 -1 -1 -1 -1 -1 -1 -2 -2 -2 -2 -2 -2 -2 -2 -2 -2 -2 -2 -2 -2 -2 -2 -2 -2 -2 -2 -2 -2 -2 -2 -2 -2
-1 -0 1 0 -0 -0 0 1 1 0 0 -0 -1 -1 -1 -2 -2 -2 -2 -2 -2 -2 -2 -3 -3 -3 -3 -3 -3 -3 -3 -3 -2 -2 -2 -2 -2 -2 -2 -2 -2 -2 -2 -2
-0 0 1 1 1 1 1 0 0 -0 -0 -1 -1 -2 -2 -2 -2 -2 -3 -3 -3 -3 -3 -3 -3 -3 -3 -3 -3 -3 -3 -3 -3 -3 -3 -3 -3 -3 -3 -3 -3 -3 -3 -3
-1 -0 1 1 1 1 1 0 -0 -1 -1 -1 -2 -2 -2 -3 -3 -3 -3 -3 -3 -3 -3 -3 -3 -4 -3 -3 -3 -3 -3 -3 -3 -3 -3 -3 -3 -3 -3 -3 -3 -3 -3 -3
-2 -1 0 1 1 1 0 -0 -1 -1 -2 -2 -2 -3 -3 -3 -3 -3 -3 -3 -4 -4 -4 -4 -4 -4 -4 -4 -4 -3 -4 -4 -3 -3 -3 -3 -3 -3 -4 -4 -4 -4 -4 -4
-1 -0 -1 0 0 -0 -1 -1 -1 -2 -2 -2 -3 -3 -3 -4 -4 -4 -4 -4 -4 -4 -4 -4 -4 -4 -4 -4 -4 -4 -4 -4 -4 -4 -4 -4 -4 -4 -4 -4 -4 -4 -4 -4
0 0 0 -0 -0 -1 -1 -2 -2 -2 -3 -3 -3 -4 -4 -4 -4 -4 -4 -4 -4 -4 -4 -4 -4 -4 -4 -4 -4 -4 -4 -4 -4 -4 -4 -4 -4 -4 -4 -4 -4 -4 -4 -4
-0 -0 -1 -1 -1 -1 -2 -2 -3 -3 -3 -3 -3 -4 -4 -4 -4 -4 -4 -4 -4 -4 -4 -4 -4 -4 -4 -4 -4 -4 -4 -4 -4 -4 -4 -4 -4 -4 -4 -4 -4 -4 -4 -4
-1 -1 -1 -2 -2 -2 -3 -3 -3 -3 -3 -4 -4 -4 -4 -4 -4 -4 -4 -4 -4 -4 -4 -4 -4 -5 -5 -5 -5 -5 -5 -5 -5 -5 -5 -5 -5 -5 -5 -5 -5 -5 -4 -4
-2 -2 -2 -2 -3 -3 -3 -4 -4 -4 -4 -4 -4 -4 -4 -5 -5 -5 -5 -5 -5 -5 -5 -5 -5 -5 -5 -5 -5 -5 -5 -5 -5 -5 -5 -5 -5 -5 -5 -5 -5 -5 -5 -5
-2 -3 -3 -3 -3 -3 -4 -4 -4 -4 -4 -4 -4 -5 -5 -5 -5 -5 -5 -5 -5 -5 -5 -5 -5 -5 -5 -5 -5 -5 -5 -5 -5 -5 -5 -5 -5 -5 -5 -5 -5 -5 -5 -5
-3 -3 -3 -3 -3 -4 -4 -4 -4 -4 -5 -5 -5 -5 -5 -5 -5 -5 -5 -5 -5 -5 -5 -5 -5 -5 -5 -5 -5 -5 -5 -5 -5 -5 -6 -6 -5 -5 -5 -5 -5 -5 -5 -5
-3 -3 -3 -4 -4 -4 -4 -4 -4 -5 -5 -5 -5 -5 -5 -5 -5 -5 -5 -5 -5 -5 -5 -5 -5 -5 -5 -5 -6 -6 -6 -6 -6 -6 -6 -6 -6 -6 -6 -6 -6 -5 -5 -5
-4 -4 -4 -4 -4 -4 -4 -4 -5 -5 -5 -5 -5 -5 -5 -5 -5 -5 -5 -5 -5 -5 -5 -5 -6 -6 -6 -6 -6 -6 -6 -6 -6 -6 -6 -6 -6 -6 -6 -6 -6 -6 -6 -6
-4 -4 -4 -4 -4 -4 -5 -5 -5 -5 -5 -5 -5 -5 -5 -5 -6 -6 -6 -6 -6 -6 -6 -6 -6 -6 -6 -6 -6 -6 -6 -6 -6 -6 -6 -6 -6 -6 -6 -6 -6 -6 -6 -6
-4 -4 -4 -4 -4 -4 -5 -5 -5 -5 -5 -5 -5 -5 -5 -6 -6 -6 -6 -6 -6 -6 -6 -6 -6 -6 -6 -6 -6 -6 -6 -6 -6 -6 -6 -6 -6 -6 -6 -6 -6 -6 -6 -6
-4 -4 -5 -5 -5 -5 -5 -5 -5 -5 -5 -5 -5 -5 -6 -6 -6 -6 -6 -6 -6 -6 -6 -6 -6 -6 -7 -6 -6 -6 -6 -6 -6 -6 -7 -7 -7 -6 -6 -6 -6 -6 -6 -6
-4 -4 -5 -5 -5 -5 -5 -5 -5 -5 -5 -5 -6 -6 -6 -6 -6 -6 -6 -6 -6 -6 -6 -6 -7 -7 -7 -6 -7 -7 -7 -7 -7 -7 -7 -7 -7 -7 -7 -6 -6 -6 -6 -6
-4 -5 -5 -5 -5 -5 -5 -6 -6 -6 -6 -6 -6 -6 -6 -6 -6 -6 -6 -6 -6 -7 -7 -7 -7 -7 -7 -7 -7 -7 -7 -7 -7 -7 -7 -7 -7 -7 -7 -7 -7 -7 -7 -6
-4 -5 -5 -5 -5 -5 -6 -6 -6 -6 -6 -6 -6 -6 -6 -6 -6 -6 -7 -7 -7 -7 -7 -7 -7 -7 -7 -7 -7 -7 -7 -7 -7 -7 -7 -7 -7 -7 -7 -7 -7 -7 -7 -7
-5 -5 -5 -5 -5 -6 -6 -6 -6 -6 -6 -6 -6 -6 -6 -7 -7 -7 -7 -7 -7 -7 -7 -7 -7 -7 -7 -7 -7 -7 -7 -7 -7 -7 -7 -7 -7 -7 -7 -7 -7 -7 -7 -7
Wind_Speed
8 9 8 8 8 7 8 8 7 8 9 9 7 6 5 5 6 6 6 6 5 5 5 5 5 5 3 3 3 3 3 3 3 2 3 3 3 3 3 3 3 3 3 3
6 7 7 10 10 9 10 9 11 12 13 7 6 5 5 5 6 6 7 6 6 6 6 6 5 5 4 3 3 3 3 4 3 3 3 3 3 3 3 3 3 3 3 3
4 4 6 8 8 9 7 7 7 10 9 7 6 6 5 5 5 5 6 7 6 6 5 5 5 4 4 3 3 3 3 3 4 3 3 4 4 4 4 4 3 3 3 3
3 4 6 5 1 3 6 8 7 6 6 5 6 5 4 3 4 5 6 6 6 5 5 5 5 4 4 3 3 3 3 3 4 4 4 4 4 4 3 3 3 3 3 3
2 4 8 4 1 1 3 5 4 5 6 6 5 4 2 3 4 4 5 5 5 4 4 5 4 4 4 4 3 3 4 4 4 4 4 4 4 4 4 3 4 4 3 3
3 4 5 2 2 2 1 4 2 2 4 5 5 4 4 4 5 5 5 5 4 4 4 4 4 4 4 4 3 3 4 4 4 4 3 4 4 4 3 3 3 4 4 4
6 6 6 1 2 3 2 4 2 1 2 3 3 4 3 4 4 4 4 5 4 4 4 4 4 3 3 3 3 3 4 4 4 4 4 3 3 3 3 3 3 3 4 4
5 6 7 3 4 4 4 2 2 2 2 3 3 3 3 3 4 4 4 5 4 4 4 4 4 3 3 4 3 3 4 4 4 4 4 4 3 3 3 3 3 3 3 4
7 7 2 4 4 3 1 2 2 3 3 3 4 4 4 3 4 3 4 4 3 3 4 4 4 3 3 4 4 4 4 4 4 4 4 3 3 3 3 3 2 3 3 3
5 7 5 4 3 3 3 3 3 3 3 3 4 5 4 3 3 3 3 3 2 3 3 4 4 4 3 4 4 3 4 4 4 3 4 3 3 3 2 3 3 3 3 4
7 7 5 5 4 3 3 3 3 3 3 4 4 5 4 3 3 3 3 2 2 2 2 3 3 3 4 3 3 3 3 4 4 4 4 4 4 3 3 3 3 3 3 3
6 4 2 3 2 2 3 4 3 3 4 4 4 5 3 3 2 2 2 2 2 2 2 3 3 3 3 3 3 3 3 4 3 3 3 3 3 4 6 5 7 7 6 5
3 2 3 4 4 2 2 3 3 3 4 4 4 3 2 2 2 2 2 2 2 2 2 2 3 3 3 3 3 3 3 3 3 3 3 3 3 3 4 5 7 7 8 8
3 3 4 3 3 2 2 3 3 3 3 3 2 2 1 1 1 1 2 2 2 2 2 2 2 3 3 3 3 3 3 3 3 2 3 3 3 3 2 3 4 5 6 8
5 4 5 3 3 3 2 2 2 3 2 2 1 1 1 1 2 2 2 1 1 1 2 2 2 3 3 3 3 3 3 2 2 2 3 3 3 3 2 3 3 3 4 6
4 4 4 4 4 3 2 2 3 4 3 2 1 1 1 1 1 2 1 0 0 1 1 1 2 2 3 3 3 2 2 4 4 3 3 3 3 3 3 3 3 3 4 4
4 5 4 4 4 4 4 4 4 4 3 2 2 1 1 1 1 1 1 1 1 1 1 1 1 2 2 2 2 2 2 3 5 3 2 3 3 3 2 2 2 3 3 5
5 5 4 4 4 4 4 3 3 3 2 2 2 1 1 1 1 1 1 1 1 1 1 1 1 1 2 2 2 1 1 2 2 2 2 2 3 2 2 3 3 3 3 4
4 4 3 3 3 3 4 3 3 2 2 2 2 2 2 2 2 1 0 0 1 1 1 1 2 2 1 2 3 1 1 1 2 2 2 3 3 3 3 3 3 3 3 4
2 1 2 2 2 2 3 3 2 2 3 3 2 2 2 2 1 1 1 1 1 1 0 1 1 1 1 1 2 1 1 1 1 2 2 2 2 3 3 3 3 3 3 3
1 1 1 2 2 2 2 2 2 3 3 3 4 3 3 2 2 2 1 1 1 0 0 1 1 1 1 1 2 1 1 1 1 1 2 2 2 2 3 3 3 3 3 3
1 1 2 2 2 2 2 1 2 3 3 3 3 3 3 2 2 1 2 2 1 0 1 0 0 1 1 2 1 1 1 1 1 1 1 1 2 2 2 3 3 3 3 3
2 2 2 2 2 2 2 1 2 2 3 3 4 3 3 3 2 2 2 1 1 1 1 0 1 1 2 2 1 1 1 1 1 1 1 1 1 2 2 2 2 3 3 3
1 2 2 2 1 1 2 2 2 2 2 2 3 3 3 2 1 1 1 1 1 1 0 1 1 1 2 1 1 0 0 0 0 1 1 1 1 1 2 2 2 2 3 3
2 2 2 2 2 2 2 2 1 1 2 1 2 2 2 2 2 1 1 1 1 0 0 1 1 1 1 1 1 1 1 0 0 1 1 1 1 1 2 2 2 2 3 3
2 2 2 3 2 2 2 2 1 1 2 2 1 1 1 1 2 2 1 1 1 1 1 0 0 0 1 1 1 1 1 1 1 1 1 1 1 2 2 2 3 2 2 3
2 2 1 2 2 2 2 2 2 2 2 2 2 1 2 2 2 2 2 1 1 1 1 0 0 0 0 0 1 1 1 1 1 1 1 1 1 1 2 2 2 2 2 2
Wind_Direction
267 275 273 263 253 237 230 234 243 269 283 294 311 327 332 335 336 341 344 348 351 350 349 351 356 359 357 359 7 9 5 359 357 4 353 342 342 339 335 333 330 321 314 307
272 261 269 269 253 239 242 246 255 272 280 296 316 327 332 340 337 337 339 346 349 347 348 350 351 348 349 347 358 2 1 353 354 4 356 341 336 341 343 342 337 331 317 315
269 306 308 269 238 219 229 230 235 253 268 309 325 330 325 325 330 335 341 347 346 340 340 340 339 341 342 336 349 360 356 350 352 354 348 338 339 347 346 337 328 326 321 324
285 318 258 248 175 191 230 248 242 259 288 306 312 313 304 319 345 345 344 340 338 341 340 340 342 344 341 344 358 357 353 352 352 350 344 341 344 343 339 331 322 320 318 317
252 270 272 256 203 166 218 269 245 252 282 303 327 321 307 3 5 348 340 336 337 343 340 339 343 347 352 353 0 358 352 348 347 347 342 340 341 339 333 330 328 322 314 314
234 251 259 254 120 107 105 275 289 261 288 312 344 316 298 349 358 350 348 346 344 342 345 346 344 354 356 350 0 351 344 342 340 341 337 332 333 328 326 327 320 320 320 320
231 244 263 236 151 127 186 264 333 353 318 308 274 264 291 327 340 343 340 338 340 343 347 342 344 356 352 348 353 346 348 347 344 345 339 330 333 330 329 331 328 325 328 330
208 231 251 163 146 187 227 294 324 324 316 303 295 303 315 321 323 334 338 336 341 346 344 340 350 1 350 344 349 357 356 354 350 349 342 340 347 343 340 340 336 333 340 342
208 225 237 175 198 215 236 280 299 313 312 310 305 302 306 309 313 322 326 330 339 343 337 343 355 3 353 343 353 355 357 357 354 350 344 342 350 347 343 343 345 340 348 348
259 258 256 238 229 234 239 257 288 296 300 302 294 296 301 306 308 312 323 328 336 339 340 345 351 358 349 345 351 359 358 352 352 356 350 349 346 340 343 346 348 346 348 345
254 265 272 249 231 249 264 267 278 286 283 275 279 287 286 291 295 302 315 320 329 336 337 339 348 355 351 353 356 4 357 352 353 356 353 353 353 351 344 344 343 341 336 334
237 240 235 264 271 291 278 276 274 281 286 282 272 274 279 280 287 304 313 323 336 341 341 339 345 351 353 353 359 4 356 356 355 354 353 354 356 358 4 1 0 358 352 345
247 290 279 273 276 280 272 283 287 269 267 281 276 266 263 279 292 308 312 318 320 320 324 331 344 352 351 353 358 1 353 346 346 348 350 348 350 357 357 3 8 7 7 4
251 271 280 266 270 289 286 288 290 281 278 268 260 264 258 279 297 301 297 304 315 324 327 333 351 347 346 355 358 355 350 345 346 345 344 343 343 345 348 356 358 2 4 8
247 244 254 281 288 282 285 298 300 295 295 286 267 254 244 252 270 284 296 323 344 344 333 341 351 340 348 357 356 350 346 344 348 349 348 345 345 352 360 0 1 355 355 359
265 261 253 255 263 268 275 268 268 276 279 263 263 262 255 241 262 286 292 259 303 300 307 322 323 333 347 349 348 347 352 352 354 354 353 354 356 1 4 4 0 357 356 350
254 259 255 259 263 264 259 253 254 259 255 244 242 243 245 241 292 305 306 298 287 292 294 273 313 338 340 336 336 338 346 347 351 355 355 356 357 358 358 359 357 356 350 349
244 254 249 247 254 260 263 256 249 243 240 241 229 208 217 219 232 250 271 317 340 330 336 52 10 338 341 341 339 341 342 337 341 348 356 3 3 3 2 2 360 356 351 352
256 257 255 252 248 240 243 243 237 224 217 213 209 222 229 228 219 214 200 202 251 289 312 10 346 2 343 340 349 342 345 351 353 355 3 6 9 10 7 2 357 353 351 353
261 266 269 272 266 243 239 234 220 216 213 201 203 215 222 220 192 191 201 242 243 242 250 316 344 351 344 330 346 350 359 355 357 4 11 15 13 7 3 359 358 357 357 356
278 291 288 278 279 269 242 223 208 216 218 202 200 207 214 217 199 191 195 257 278 17 17 345 10 329 328 334 351 8 5 356 4 11 9 9 8 1 359 356 354 354 354 352
258 262 270 271 267 277 269 237 215 209 207 202 197 197 198 204 203 221 232 226 216 307 16 339 315 317 346 3 22 8 357 358 7 10 11 8 3 354 350 348 348 349 349 346
251 247 257 260 255 268 283 260 226 208 205 200 198 200 204 210 206 204 242 235 193 260 354 253 291 334 10 36 34 11 6 12 9 1 1 356 350 343 338 338 340 342 340 338
256 250 252 254 233 240 262 264 241 215 203 200 200 200 196 196 223 216 173 189 230 288 39 266 306 9 35 48 32 11 358 4 4 346 350 349 347 341 335 334 332 331 330 330
240 242 239 225 224 233 241 235 214 202 190 191 201 200 197 196 197 178 147 161 193 141 93 279 333 19 48 41 12 345 326 311 327 348 350 344 335 331 328 327 324 322 323 325
235 235 240 236 230 227 215 200 209 209 190 190 200 187 166 146 138 132 136 152 167 148 87 27 326 10 56 24 358 348 340 329 343 352 330 322 320 323 323 323 318 316 316 322
234 232 234 251 246 220 204 198 205 208 198 190 192 177 154 142 139 138 138 147 151 143 145 138 73 54 38 357 333 329 332 335 332 320 317 317 318 317 317 315 315 316 323 327
Height
1490 1486 1485 1484 1484 1485 1486 1484 1483 1472 1467 1461 1460 1459 1458 1456 1455 1452 1451 1449 1446 1445 1442 1441 1439 1437 1436 1435 1434 1433 1433 1432 1431 1431 1431 1430 1430 1429 1428 1427 1427 1427 1427 1427
1489 1483 1482 1480 1478 1478 1479 1477 1474 1470 1466 1460 1459 1458 1457 1456 1454 1452 1450 1448 1446 1443 1441 1440 1438 1436 1435 1434 1433 1432 1431 1431 1430 1430 1429 1428 1428 1427 1426 1425 1425 1425 1425 1424
1488 1482 1482 1478 1471 1472 1472 1469 1470 1469 1464 1459 1458 1458 1457 1455 1454 1452 1449 1447 1445 1443 1441 1440 1438 1436 1434 1433 1432 1431 1430 1430 1429 1428 1427 1426 1425 1425 1424 1423 1423 1423 1422 1422
1491 1488 1485 1469 1463 1464 1466 1465 1464 1462 1461 1459 1458 1457 1456 1454 1453 1450 1448 1446 1444 1442 1440 1438 1437 1435 1433 1432 1431 1430 1429 1428 1427 1427 1425 1424 1424 1423 1422 1422 1421 1420 1420 1419
1492 1488 1474 1465 1464 1464 1467 1465 1461 1460 1459 1458 1456 1455 1454 1453 1451 1450 1448 1446 1443 1441 1439 1437 1435 1434 1432 1430 1429 1428 1427 1426 1426 1425 1424 1423 1422 1421 1421 1420 1419 1418 1418 1417
1490 1487 1477 1463 1463 1461 1465 1465 1459 1458 1457 1457 1456 1457 1454 1451 1450 1448 1446 1444 1442 1439 1437 1435 1434 1432 1431 1429 1428 1427 1427 1426 1425 1424 1423 1422 1421 1420 1419 1418 1417 1416 1416 1415
1488 1483 1470 1463 1462 1463 1468 1463 1458 1456 1456 1456 1455 1455 1453 1450 1448 1446 1444 1442 1440 1438 1436 1434 1433 1431 1430 1429 1428 1427 1426 1425 1424 1423 1422 1421 1420 1419 1417 1416 1415 1414 1413 1412
1482 1480 1471 1461 1461 1463 1461 1456 1456 1455 1454 1454 1453 1451 1450 1448 1446 1444 1442 1440 1438 1436 1434 1433 1432 1430 1429 1428 1427 1426 1425 1424 1423 1422 1421 1420 1419 1417 1416 1415 1413 1412 1411 1410
1470 1466 1458 1457 1456 1456 1455 1455 1454 1453 1452 1451 1450 1448 1447 1445 1443 1442 1440 1438 1436 1435 1433 1432 1431 1430 1428 1427 1427 1426 1424 1423 1422 1421 1420 1419 1417 1416 1415 1414 1412 1411 1410 1408
1464 1456 1454 1454 1453 1453 1453 1452 1451 1451 1450 1448 1447 1446 1444 1443 1441 1439 1438 1436 1435 1433 1432 1431 1430 1429 1428 1427 1426 1425 1423 1422 1421 1421 1420 1418 1417 1416 1414 1413 1412 1410 1409 1408
1460 1454 1451 1450 1450 1450 1450 1449 1448 1447 1446 1445 1444 1442 1441 1440 1438 1437 1435 1434 1433 1432 1431 1430 1430 1429 1428 1427 1425 1424 1423 1422 1421 1420 1419 1417 1416 1415 1414 1413 1413 1411 1410 1409
1453 1449 1449 1448 1447 1447 1446 1445 1444 1443 1442 1441 1441 1439 1438 1437 1436 1434 1433 1433 1432 1431 1430 1429 1428 1427 1427 1426 1425 1423 1422 1421 1420 1419 1418 1417 1415 1415 1414 1413 1412 1411 1410 1409
1447 1446 1446 1444 1444 1444 1443 1442 1441 1440 1439 1437 1437 1436 1435 1434 1433 1432 1431 1431 1430 1430 1429 1428 1427 1427 1426 1425 1424 1423 1421 1420 1419 1418 1417 1416 1415 1413 1412 1412 1412 1410 1409 1408
1443 1443 1442 1441 1441 1440 1440 1439 1438 1436 1435 1434 1433 1433 1432 1432 1431 1430 1430 1430 1429 1429 1428 1428 1427 1426 1425 1424 1423 1422 1421 1420 1419 1418 1417 1416 1415 1413 1412 1410 1409 1409 1408 1407
1440 1440 1439 1438 1437 1437 1436 1435 1434 1433 1432 1431 1431 1430 1430 1429 1429 1429 1429 1428 1428 1428 1428 1427 1426 1426 1425 1424 1423 1422 1420 1419 1418 1417 1416 1415 1414 1412 1411 1410 1409 1408 1407 1407
1436 1435 1435 1434 1433 1433 1432 1431 1431 1430 1429 1429 1428 1428 1428 1428 1427 1427 1427 1427 1427 1427 1426 1426 1425 1425 1424 1423 1422 1421 1420 1419 1418 1417 1416 1415 1413 1412 1411 1411 1410 1409 1408 1407
1432 1431 1431 1430 1430 1429 1429 1429 1428 1427 1427 1426 1426 1426 1426 1426 1426 1426 1426 1426 1426 1426 1425 1425 1425 1424 1424 1423 1422 1421 1420 1419 1418 1417 1416 1414 1413 1413 1412 1411 1410 1409 1408 1407
1428 1428 1428 1428 1427 1426 1426 1426 1425 1425 1425 1424 1424 1424 1424 1424 1424 1424 1424 1424 1425 1425 1424 1424 1424 1423 1423 1422 1421 1420 1419 1418 1417 1416 1415 1414 1414 1413 1412 1411 1410 1409 1408 1407
1424 1424 1424 1424 1424 1423 1423 1422 1423 1423 1422 1422 1422 1422 1422 1422 1423 1423 1423 1423 1423 1423 1423 1423 1423 1422 1422 1421 1420 1419 1418 1418 1417 1416 1415 1414 1413 1412 1412 1411 1410 1409 1408 1407
1421 1421 1421 1421 1420 1420 1420 1420 1420 1420 1420 1420 1420 1420 1421 1421 1421 1421 1421 1421 1421 1421 1421 1421 1421 1421 1420 1420 1419 1418 1418 1417 1416 1415 1414 1414 1413 1412 1412 1411 1410 1409 1408 1407
1419 1419 1418 1418 1418 1417 1417 1417 1417 1418 1418 1418 1418 1418 1419 1419 1420 1420 1420 1420 1420 1420 1420 1420 1420 1420 1419 1419 1418 1417 1417 1416 1415 1414 1414 1413 1413 1412 1411 1411 1410 1409 1408 1407
1417 1417 1416 1416 1416 1415 1415 1415 1415 1416 1416 1416 1416 1416 1417 1417 1418 1418 1418 1419 1419 1419 1419 1419 1418 1418 1418 1418 1417 1416 1416 1415 1414 1414 1413 1413 1412 1412 1411 1411 1410 1409 1408 1407
1415 1415 1415 1414 1414 1414 1414 1414 1413 1413 1414 1414 1414 1414 1415 1415 1415 1416 1416 1417 1417 1417 1417 1417 1417 1417 1417 1416 1416 1415 1415 1414 1413 1413 1413 1412 1412 1411 1411 1410 1410 1409 1408 1407
1414 1413 1413 1413 1412 1412 1412 1412 1412 1411 1412 1412 1412 1413 1413 1413 1414 1414 1415 1415 1415 1415 1416 1416 1416 1416 1416 1415 1415 1414 1414 1413 1413 1412 1412 1412 1411 1411 1410 1410 1409 1409 1408 1407
1412 1412 1411 1411 1410 1410 1410 1410 1410 1410 1410 1410 1411 1411 1412 1412 1412 1412 1413 1413 1414 1414 1414 1414 1414 1414 1414 1414 1413 1413 1413 1412 1412 1411 1411 1411 1410 1410 1410 1409 1409 1408 1407 1407
1410 1410 1409 1409 1409 1408 1408 1408 1408 1408 1408 1408 1409 1409 1410 1410 1410 1411 1411 1411 1412 1412 1413 1413 1413 1413 1413 1413 1413 1412 1412 1412 1411 1411 1411 1410 1410 1410 1409 1409 1408 1408 1407 1406
1408 1408 1407 1407 1407 1406 1406 1406 1406 1406 1407 1407 1407 1407 1408 1408 1409 1409 1410 1410 1410 1411 1411 1412 1412 1412 1412 1412 1412 1411 1411 1411 1411 1410 1410 1410 1409 1409 1409 1408 1408 1407 1407 1406